Time,TemperatureF,DewpointF,PressureIn,WindDirection,WindDirectionDegrees,WindSpeedMPH,WindSpeedGustMPH,Humidity,HourlyPrecipIn,Conditions,Clouds,dailyrainin,SolarRadiationWatts/m^2,SoftwareType,DateUTC
2013-03-07 00:01:00,33.0,26.0,-100.00,NNE,22,4.0,13.0,75,0.00,,,0.63,0.000000,,2013-03-07 05:01:00,
2013-03-07 00:32:00,33.0,26.0,-100.00,NNE,22,4.0,13.0,75,0.00,,,0.63,0.000000,,2013-03-07 05:32:00,
2013-03-07 00:42:00,33.0,26.0,-100.00,NNE,22,4.0,13.0,75,0.00,,,0.63,0.000000,,2013-03-07 05:42:00,
2013-03-07 00:52:00,33.0,26.0,-100.00,NNE,22,4.0,13.0,75,0.00,,,0.63,0.000000,,2013-03-07 05:52:00,
2013-03-07 01:01:00,33.0,26.0,-100.00,NNE,17,3.0,13.0,74,0.00,,,0.63,0.000000,,2013-03-07 06:01:00,
2013-03-07 01:32:00,33.0,26.0,-100.00,NNE,17,3.0,13.0,74,0.00,,,0.63,0.000000,,2013-03-07 06:32:00,
2013-03-07 01:42:00,33.0,26.0,-100.00,NNE,17,3.0,13.0,74,0.00,,,0.63,0.000000,,2013-03-07 06:42:00,
2013-03-07 01:52:00,33.0,26.0,-100.00,NNE,17,3.0,13.0,74,0.00,,,0.63,0.000000,,2013-03-07 06:52:00,
2013-03-07 02:01:00,33.0,26.0,-100.00,NNE,29,7.0,12.0,74,0.00,,,0.63,0.000000,,2013-03-07 07:01:00,
2013-03-07 02:32:00,33.0,26.0,-100.00,NNE,29,7.0,12.0,74,0.00,,,0.63,0.000000,,2013-03-07 07:32:00,
2013-03-07 02:43:00,33.0,26.0,-100.00,NNE,29,7.0,12.0,74,0.00,,,0.63,0.000000,,2013-03-07 07:43:00,
2013-03-07 02:53:00,33.0,26.0,-100.00,NNE,29,7.0,12.0,74,0.00,,,0.63,0.000000,,2013-03-07 07:53:00,
2013-03-07 03:01:00,33.0,26.0,-100.00,NE,45,5.0,15.0,74,0.00,,,0.63,0.000000,,2013-03-07 08:01:00,
2013-03-07 03:34:00,33.0,26.0,-100.00,NE,45,5.0,15.0,74,0.00,,,0.63,0.000000,,2013-03-07 08:34:00,
2013-03-07 03:45:00,33.0,26.0,-100.00,NE,45,5.0,15.0,74,0.00,,,0.63,0.000000,,2013-03-07 08:45:00,
2013-03-07 03:54:00,33.0,26.0,-100.00,NE,45,5.0,15.0,74,0.00,,,0.63,0.000000,,2013-03-07 08:54:00,
2013-03-07 04:01:00,33.0,26.0,-100.00,NE,45,3.0,17.0,74,0.00,,,0.63,0.000000,,2013-03-07 09:01:00,
2013-03-07 04:33:00,33.0,26.0,-100.00,NE,45,3.0,17.0,74,0.00,,,0.63,0.000000,,2013-03-07 09:33:00,
2013-03-07 04:43:00,33.0,26.0,-100.00,NE,45,3.0,17.0,74,0.00,,,0.63,0.000000,,2013-03-07 09:43:00,
2013-03-07 04:53:00,33.0,26.0,-100.00,NE,45,3.0,17.0,74,0.00,,,0.63,0.000000,,2013-03-07 09:53:00,
2013-03-07 05:01:00,33.0,26.0,-100.00,North,5,6.0,11.0,74,0.00,,,0.63,0.000000,,2013-03-07 10:01:00,
2013-03-07 05:24:00,33.0,26.0,-100.00,North,5,6.0,11.0,74,0.00,,,0.63,0.000000,,2013-03-07 10:24:00,
2013-03-07 05:33:00,33.0,26.0,-100.00,North,5,6.0,11.0,74,0.00,,,0.63,0.000000,,2013-03-07 10:33:00,
2013-03-07 05:43:00,33.0,26.0,-100.00,North,5,6.0,11.0,74,0.00,,,0.63,0.000000,,2013-03-07 10:43:00,
2013-03-07 05:53:00,33.0,26.0,-100.00,North,5,6.0,11.0,74,0.00,,,0.63,0.000000,,2013-03-07 10:53:00,
2013-03-07 06:01:00,33.0,25.0,-100.00,NNE,23,6.0,14.0,73,0.00,,,0.63,0.000000,,2013-03-07 11:01:00,
2013-03-07 06:34:00,33.0,25.0,-100.00,NNE,23,6.0,14.0,73,0.00,,,0.63,0.000000,,2013-03-07 11:34:00,
2013-03-07 06:44:00,33.0,25.0,-100.00,NNE,23,6.0,14.0,73,0.00,,,0.63,0.000000,,2013-03-07 11:44:00,
2013-03-07 06:55:00,33.0,25.0,-100.00,NNE,23,6.0,14.0,73,0.00,,,0.63,0.000000,,2013-03-07 11:55:00,
2013-03-07 07:01:00,33.0,25.0,-100.00,ENE,57,4.0,16.0,71,0.00,,,0.63,1.000000,,2013-03-07 12:01:00,
2013-03-07 07:34:00,33.0,25.0,-100.00,ENE,57,4.0,16.0,71,0.00,,,0.63,1.000000,,2013-03-07 12:34:00,
2013-03-07 07:43:00,33.0,25.0,-100.00,ENE,57,4.0,16.0,71,0.00,,,0.63,1.000000,,2013-03-07 12:43:00,
2013-03-07 07:53:00,33.0,25.0,-100.00,ENE,57,4.0,16.0,71,0.00,,,0.63,1.000000,,2013-03-07 12:53:00,
2013-03-07 08:01:00,33.0,25.0,-100.00,West,269,3.0,18.0,71,0.00,,,0.63,12.000000,,2013-03-07 13:01:00,
2013-03-07 08:33:00,33.0,25.0,-100.00,West,269,3.0,18.0,71,0.00,,,0.63,12.000000,,2013-03-07 13:33:00,
2013-03-07 08:42:00,33.0,25.0,-100.00,West,269,3.0,18.0,71,0.00,,,0.63,12.000000,,2013-03-07 13:42:00,
2013-03-07 08:53:00,33.0,25.0,-100.00,West,269,3.0,18.0,71,0.00,,,0.63,12.000000,,2013-03-07 13:53:00,
2013-03-07 09:01:00,33.0,25.0,-100.00,SSE,153,4.0,15.0,72,0.00,,,0.63,31.000000,,2013-03-07 14:01:00,
2013-03-07 09:34:00,33.0,25.0,-100.00,SSE,153,4.0,15.0,72,0.00,,,0.63,31.000000,,2013-03-07 14:34:00,
2013-03-07 09:43:00,33.0,25.0,-100.00,SSE,153,4.0,15.0,72,0.00,,,0.63,31.000000,,2013-03-07 14:43:00,
2013-03-07 09:54:00,33.0,25.0,-100.00,SSE,153,4.0,15.0,72,0.00,,,0.63,31.000000,,2013-03-07 14:54:00,
2013-03-07 10:01:00,33.0,24.0,-100.00,NE,36,6.0,13.0,70,0.00,,,0.63,71.000000,,2013-03-07 15:01:00,
2013-03-07 10:33:00,33.0,24.0,-100.00,NE,36,6.0,13.0,70,0.00,,,0.63,71.000000,,2013-03-07 15:33:00,
2013-03-07 10:43:00,33.0,24.0,-100.00,NE,36,6.0,13.0,70,0.00,,,0.63,71.000000,,2013-03-07 15:43:00,
2013-03-07 10:53:00,33.0,24.0,-100.00,NE,36,6.0,13.0,70,0.00,,,0.63,71.000000,,2013-03-07 15:53:00,
2013-03-07 11:01:00,35.0,24.0,-100.00,North,358,5.0,14.0,64,0.00,,,0.63,175.000000,,2013-03-07 16:01:00,
2013-03-07 11:33:00,35.0,24.0,-100.00,North,358,5.0,14.0,64,0.00,,,0.63,175.000000,,2013-03-07 16:33:00,
2013-03-07 11:43:00,35.0,24.0,-100.00,North,358,5.0,14.0,64,0.00,,,0.63,175.000000,,2013-03-07 16:43:00,
2013-03-07 11:53:00,35.0,24.0,-100.00,North,358,5.0,14.0,64,0.00,,,0.63,175.000000,,2013-03-07 16:53:00,
2013-03-07 12:01:00,39.0,24.0,-100.00,NNW,348,5.0,14.0,54,0.00,,,0.63,410.000000,,2013-03-07 17:01:00,
2013-03-07 12:34:00,39.0,24.0,-100.00,NNW,348,5.0,14.0,54,0.00,,,0.63,410.000000,,2013-03-07 17:34:00,
2013-03-07 12:44:00,39.0,24.0,-100.00,NNW,348,5.0,14.0,54,0.00,,,0.63,410.000000,,2013-03-07 17:44:00,
2013-03-07 12:55:00,39.0,24.0,-100.00,NNW,348,5.0,14.0,54,0.00,,,0.63,410.000000,,2013-03-07 17:55:00,
2013-03-07 13:01:00,38.0,20.0,-100.00,NNE,15,5.0,14.0,48,0.00,,,0.63,642.000000,,2013-03-07 18:01:00,
2013-03-07 13:22:00,38.0,20.0,-100.00,NNE,15,5.0,14.0,48,0.00,,,0.63,642.000000,,2013-03-07 18:22:00,
2013-03-07 13:32:00,38.0,20.0,-100.00,NNE,15,5.0,14.0,48,0.00,,,0.63,642.000000,,2013-03-07 18:32:00,
2013-03-07 13:43:00,38.0,20.0,-100.00,NNE,15,5.0,14.0,48,0.00,,,0.63,642.000000,,2013-03-07 18:43:00,
2013-03-07 13:53:00,38.0,20.0,-100.00,NNE,15,5.0,14.0,48,0.00,,,0.63,642.000000,,2013-03-07 18:53:00,
2013-03-07 14:01:00,38.0,20.0,-100.00,North,359,7.0,14.0,48,0.00,,,0.37,479.000000,,2013-03-07 19:01:00,
2013-03-07 14:35:00,38.0,20.0,-100.00,North,359,7.0,14.0,48,0.00,,,0.37,479.000000,,2013-03-07 19:35:00,
2013-03-07 14:44:00,38.0,20.0,-100.00,North,359,7.0,14.0,48,0.00,,,0.37,479.000000,,2013-03-07 19:44:00,
2013-03-07 14:53:00,38.0,20.0,-100.00,North,359,7.0,14.0,48,0.00,,,0.37,479.000000,,2013-03-07 19:53:00,
2013-03-07 15:01:00,40.0,23.0,-100.00,NNE,12,8.0,17.0,50,0.00,,,0.08,422.000000,,2013-03-07 20:01:00,
2013-03-07 15:34:00,40.0,23.0,-100.00,NNE,12,8.0,17.0,50,0.00,,,0.08,422.000000,,2013-03-07 20:34:00,
2013-03-07 15:43:00,40.0,23.0,-100.00,NNE,12,8.0,17.0,50,0.00,,,0.08,422.000000,,2013-03-07 20:43:00,
2013-03-07 15:54:00,40.0,23.0,-100.00,NNE,12,8.0,17.0,50,0.00,,,0.08,422.000000,,2013-03-07 20:54:00,
2013-03-07 16:01:00,39.0,21.0,-100.00,North,1,4.0,15.0,49,0.00,,,0.01,421.000000,,2013-03-07 21:01:00,
2013-03-07 16:33:00,39.0,21.0,-100.00,North,1,4.0,15.0,49,0.00,,,0.01,421.000000,,2013-03-07 21:33:00,
2013-03-07 16:43:00,39.0,21.0,-100.00,North,1,4.0,15.0,49,0.00,,,0.01,421.000000,,2013-03-07 21:43:00,
2013-03-07 16:53:00,39.0,21.0,-100.00,North,1,4.0,15.0,49,0.00,,,0.01,421.000000,,2013-03-07 21:53:00,
2013-03-07 17:01:00,37.0,21.0,-100.00,NNE,20,3.0,11.0,52,0.00,,,0.00,142.000000,,2013-03-07 22:01:00,
2013-03-07 17:33:00,37.0,21.0,-100.00,NNE,20,3.0,11.0,52,0.00,,,0.00,142.000000,,2013-03-07 22:33:00,
2013-03-07 17:43:00,37.0,21.0,-100.00,NNE,20,3.0,11.0,52,0.00,,,0.00,142.000000,,2013-03-07 22:43:00,
2013-03-07 17:55:00,37.0,21.0,-100.00,NNE,20,3.0,11.0,52,0.00,,,0.00,142.000000,,2013-03-07 22:55:00,
2013-03-07 18:01:00,35.0,23.0,-100.00,North,9,3.0,10.0,60,0.00,,,0.00,63.000000,,2013-03-07 23:01:00,
2013-03-07 18:35:00,35.0,23.0,-100.00,North,9,3.0,10.0,60,0.00,,,0.00,63.000000,,2013-03-07 23:35:00,
2013-03-07 18:44:00,35.0,23.0,-100.00,North,9,3.0,10.0,60,0.00,,,0.00,63.000000,,2013-03-07 23:44:00,
2013-03-07 18:54:00,35.0,23.0,-100.00,North,9,3.0,10.0,60,0.00,,,0.00,63.000000,,2013-03-07 23:54:00,
2013-03-07 19:01:00,34.0,23.0,-100.00,North,357,5.0,12.0,64,0.00,,,0.00,3.000000,,2013-03-08 00:01:00,
2013-03-07 19:44:00,34.0,23.0,-100.00,North,357,5.0,12.0,64,0.00,,,0.00,3.000000,,2013-03-08 00:44:00,
2013-03-07 19:54:00,34.0,23.0,-100.00,North,357,5.0,12.0,64,0.00,,,0.00,3.000000,,2013-03-08 00:54:00,
2013-03-07 20:01:00,34.0,23.0,-100.00,NE,49,3.0,12.0,65,0.00,,,0.00,0.000000,,2013-03-08 01:01:00,
2013-03-07 20:33:00,34.0,23.0,-100.00,NE,49,3.0,12.0,65,0.00,,,0.00,0.000000,,2013-03-08 01:33:00,
2013-03-07 20:42:00,34.0,23.0,-100.00,NE,49,3.0,12.0,65,0.00,,,0.00,0.000000,,2013-03-08 01:42:00,
2013-03-07 20:52:00,34.0,23.0,-100.00,NE,49,3.0,12.0,65,0.00,,,0.00,0.000000,,2013-03-08 01:52:00,
2013-03-07 21:01:00,33.0,23.0,-100.00,NW,323,4.0,10.0,66,0.00,,,0.00,0.000000,,2013-03-08 02:01:00,
2013-03-07 21:32:00,33.0,23.0,-100.00,NW,323,4.0,10.0,66,0.00,,,0.00,0.000000,,2013-03-08 02:32:00,
2013-03-07 21:42:00,33.0,23.0,-100.00,NW,323,4.0,10.0,66,0.00,,,0.00,0.000000,,2013-03-08 02:42:00,
2013-03-07 21:53:00,33.0,23.0,-100.00,NW,323,4.0,10.0,66,0.00,,,0.00,0.000000,,2013-03-08 02:53:00,
2013-03-07 22:01:00,34.0,24.0,-100.00,NNW,339,4.0,10.0,66,0.00,,,0.00,0.000000,,2013-03-08 03:01:00,
2013-03-07 22:33:00,34.0,24.0,-100.00,NNW,339,4.0,10.0,66,0.00,,,0.00,0.000000,,2013-03-08 03:33:00,
2013-03-07 22:43:00,34.0,24.0,-100.00,NNW,339,4.0,10.0,66,0.00,,,0.00,0.000000,,2013-03-08 03:43:00,
2013-03-07 22:53:00,34.0,24.0,-100.00,NNW,339,4.0,10.0,66,0.00,,,0.00,0.000000,,2013-03-08 03:53:00,
2013-03-07 23:01:00,34.0,23.0,-100.00,NNE,15,3.0,9.0,64,0.00,,,0.00,0.000000,,2013-03-08 04:01:00,
2013-03-07 23:22:00,34.0,23.0,-100.00,NNE,15,3.0,9.0,64,0.00,,,0.00,0.000000,,2013-03-08 04:22:00,
2013-03-07 23:32:00,34.0,23.0,-100.00,NNE,15,3.0,9.0,64,0.00,,,0.00,0.000000,,2013-03-08 04:32:00,
2013-03-07 23:42:00,34.0,23.0,-100.00,NNE,15,3.0,9.0,64,0.00,,,0.00,0.000000,,2013-03-08 04:42:00,
2013-03-07 23:52:00,34.0,23.0,-100.00,NNE,15,3.0,9.0,64,0.00,,,0.00,0.000000,,2013-03-08 04:52:00,